Content
SEND FEEDBACK

Daily
Averages
Monthly
Summary
France

FLORANGE, FRANCE


Home > Europe > France
Elevation: 637 feet     Latitude: 49 30N     Longitude: 006 17E

WEATHER
 
SELECT A DAY
Number of Records: 298,144;   Date Range: 7/1/96 - 4/19/14
 
SHARE

PRINT THIS DATA

[ ← Previous Day ]
WEATHER ALMANAC - SEPTEMBER 18, 2013
[ Next Day → ]
[ °C ]   °F
Weather ElementAverageHighLow
Temperature54.2 °F57.2 °F (2:20 am)46.4 °F (11:20 pm)
Dewpoint52.1 °F55.4 °F (2:20 am)44.6 °F (11:20 pm)
Humidity92.7 %100 % (12:50 am)85 % (5:00 pm)
Barometer29.55 in29.80 in (11:00 pm)29.42 in (1:20 am)
Wind Speed12.1 mph20.7 mph (3:20 am)
Wind Gust32.2 mph (3:20 am)
Weather ElementAverage
Visibility5.2 mi
Wind DirectionW (275.2 °)

Weather ElementTotal
Precipitation---
Heating Degree Days13.2 (Base 65)
Growing Degree Days1.8 (Base 50)
Averaged from 54 records on September 18, 2013
WEATHER CONDITIONS BREAKOUT
WIND DIRECTION BREAKOUT
WEATHER BY HOUR - SEPTEMBER 18, 2013
[ °C ]   °F
Local TimeTemperatureDewpointHumidityBarometerVisibilityWind DirectionWind SpeedGust SpeedPrecipitationEventsConditions
12:50 AM50.0 °F50.0 °F100 %29.44 in2.5 miSSW (210°)9.2 mphRainLight Rain
1:20 AM51.8 °F51.8 °F100 %29.42 in2.5 miSW (220°)6.9 mphRainLight Rain
1:50 AM53.6 °F53.6 °F100 %29.42 in4.3 miWSW (250°)11.5 mphRainLight Rain
2:00 AM53.0 °F53.0 °F100 %29.43 in4.0 miWSW (240°)8.9 mphRainLight Rain
2:20 AM57.2 °F55.4 °F94 %29.42 in6.2 miWSW (250°)15.0 mph
2:50 AM57.2 °F55.4 °F94 %29.42 in6.2 miWest (260°)18.4 mph
3:20 AM57.2 °F55.4 °F94 %29.42 in6.2 miWest (260°)20.7 mph32.2 mph
3:50 AM57.2 °F55.4 °F94 %29.42 in6.2 miWest (260°)20.7 mph
4:20 AM57.2 °F53.6 °F88 %29.42 in6.2 miWest (260°)17.3 mph29.9 mph
4:50 AM57.2 °F53.6 °F88 %29.44 in6.2 miWest (260°)16.1 mphMostly Cloudy
5:00 AM57.0 °F54.0 °F87 %29.44 in9.0 miWest (260°)15.7 mphPartly Cloudy
5:20 AM57.2 °F53.6 °F88 %29.44 in6.2 miWSW (250°)16.1 mph28.8 mphMostly Cloudy
5:50 AM57.2 °F53.6 °F88 %29.44 in6.2 miWSW (250°)18.4 mphMostly Cloudy
6:20 AM55.4 °F53.6 °F94 %29.44 in6.2 miWest (260°)17.3 mphMostly Cloudy
6:50 AM55.4 °F53.6 °F94 %29.44 in6.2 miWSW (250°)15.0 mphMostly Cloudy
7:20 AM55.4 °F53.6 °F94 %29.44 in3.1 miWSW (250°)17.3 mphRainLight Rain Showers
7:50 AM55.4 °F53.6 °F94 %29.47 in1.6 miWSW (250°)17.3 mphRainLight Rain
8:00 AM55.0 °F53.0 °F92 %29.47 in2.0 miWSW (250°)15.7 mphRainLight Rain
8:20 AM55.4 °F53.6 °F94 %29.47 in3.7 miWSW (250°)15.0 mphRainLight Rain
8:50 AM55.4 °F53.6 °F94 %29.47 in2.2 miWSW (240°)17.3 mph28.8 mphLight Drizzle
9:20 AM55.4 °F53.6 °F94 %29.47 in3.7 miWSW (250°)17.3 mphLight Drizzle
9:50 AM55.4 °F53.6 °F94 %29.47 in6.2 miWSW (250°)17.3 mphMostly Cloudy
10:20 AM55.4 °F53.6 °F94 %29.50 in2.5 miWSW (250°)17.3 mphLight Drizzle
10:50 AM55.4 °F53.6 °F94 %29.50 in3.7 miWSW (250°)19.6 mphLight Drizzle
11:00 AM55.0 °F54.0 °F93 %29.52 in4.0 miWSW (250°)20.1 mphRainLight Drizzle
11:20 AM55.4 °F53.6 °F94 %29.53 in1.6 miWest (260°)15.0 mphDrizzle
11:50 AM55.4 °F53.6 °F94 %29.53 in2.2 miWest (270°)13.8 mphDrizzle
12:20 PM55.4 °F53.6 °F94 %29.53 in6.2 miWest (270°)12.7 mphMostly Cloudy
12:50 PM57.2 °F53.6 °F88 %29.53 in6.2 miWest (270°)12.7 mphMostly Cloudy
1:20 PM55.4 °F51.8 °F88 %29.56 in4.3 miNW (310°)11.5 mphRainLight Rain Showers
1:50 PM53.6 °F53.6 °F100 %29.56 in1.9 miNW (310°)10.4 mphRainRain
2:00 PM53.0 °F52.0 °F97 %29.57 in2.0 miNW (310°)8.9 mphRainRain
2:20 PM53.6 °F53.6 °F100 %29.56 in1.9 miWNW (300°)6.9 mphRainRain
2:50 PM53.6 °F51.8 °F94 %29.56 in3.7 miNW (310°)10.4 mphRainLight Rain
3:20 PM53.6 °F53.6 °F100 %29.56 in5.0 miWest (280°)6.9 mphRainLight Rain
3:50 PM55.4 °F53.6 °F94 %29.59 in6.2 miWNW (290°)9.2 mphMostly Cloudy
4:20 PM55.4 °F53.6 °F94 %29.59 in6.2 miWNW (300°)6.9 mphMostly Cloudy
4:50 PM57.2 °F53.6 °F88 %29.59 in6.2 miNW (310°)6.9 mphMostly Cloudy
5:00 PM57.0 °F54.0 °F85 %29.60 in19.0 miNW (310°)6.7 mphRainLight Rain
5:20 PM55.4 °F51.8 °F88 %29.59 in6.2 miWNW (290°)10.4 mphMostly Cloudy
5:50 PM55.4 °F51.8 °F88 %29.62 in6.2 miWNW (290°)9.2 mphMostly Cloudy
6:20 PM55.4 °F51.8 °F88 %29.62 in6.2 miWNW (290°)8.1 mphMostly Cloudy
6:50 PM55.4 °F51.8 °F88 %29.65 inWest (270°)9.2 mphClear
7:20 PM53.6 °F51.8 °F94 %29.65 in6.2 miWest (280°)6.9 mphMostly Cloudy
7:50 PM51.8 °F50.0 °F94 %29.68 in6.2 miNNW (340°)12.7 mphMostly Cloudy
8:20 PM51.8 °F48.2 °F88 %29.71 inNW (320°)8.1 mphClear
8:50 PM50.0 °F48.2 °F94 %29.71 inNW (320°)9.2 mphClear
9:20 PM50.0 °F46.4 °F87 %29.74 inNW (310°)6.9 mphClear
9:50 PM50.0 °F46.4 °F87 %29.74 inNW (320°)5.8 mphClear
10:20 PM48.2 °F46.4 °F93 %29.77 inNW (320°)4.6 mphClear
10:50 PM48.2 °F46.4 °F93 %29.77 inNW (310°)6.9 mphClear
11:00 PM48.0 °F46.0 °F89 %29.80 in12.0 miNW (310°)6.7 mphScattered Clouds
11:20 PM46.4 °F44.6 °F93 %29.80 inWest (280°)4.6 mphClear
11:50 PM46.4 °F44.6 °F93 %29.80 inWest (280°)5.8 mphClear
Hourly data recorded from ELLX, located 9.64 miles away from Florange, France







STORIES FROM OUR PARTNERS